Weather History for KSYN - March, 2013

Change the Weather History Date:

Monday, March 25, 2013

  Actual Average (KMSP) Record (KMSP)
Temperature  
Mean Temperature 30 °F 37 °F  
Max Temperature 36 °F 46 °F 78 °F (1939)
Min Temperature 23 °F 28 °F -5 °F (1940)
Degree Days  
Heating Degree Days 36 28  
Month to date heating degree days 840  
Since 1 July heating degree days 6630  
Cooling Degree Days 0 0  
Month to date cooling degree days 0  
Year to date cooling degree days 0  
Moisture  
Dew Point 18 °F    
Average Humidity 64    
Maximum Humidity 76    
Minimum Humidity 47    
Precipitation  
Precipitation 0.00 in 0.07 in 0.51 in (1995)
Month to date precipitation 1.47  
Year to date precipitation 3.14  
Snow  
Snow 0.00 in 0.30 in 3.60 in (1996)
Month to date snowfall 9.1  
Since 1 July snowfall 50.8  
Snow Depth -    
Sea Level Pressure  
Sea Level Pressure 30.09 in    
Wind  
Wind Speed 10 mph (NNW)    
Max Wind Speed 15 mph    
Max Gust Speed 20 mph    
Visibility 10 miles    
Events      
T = Trace of Precipitation, MM = Missing Value Source: NWS Daily Summary

Daily Weather History Graph

Daily Weather History Graph

Search for Another Location

Airport or City:

Trip Planner

Search our weather history database for the weather conditions in past years. The results will help you decide how hot, cold, wet, or windy it might be!

Date:

Astronomy

Mar. 25, 2013 Rise Set
Actual Time 7:05 AM CDT 7:31 PM CDT
Civil Twilight 6:36 AM CDT 8:00 PM CDT
Nautical Twilight 6:02 AM CDT 8:34 PM CDT
Astronomical Twilight 5:26 AM CDT 9:10 PM CDT
Moon 6:01 PM CDT (3/25) 5:52 AM CDT (3/25)
Length of Visible Light 13h 23m
Length of Day
12h 25m
Waxing Gibbous, 96% of the Moon is Illuminated
Mar 25
Waxing Gibbous
Mar 27
Full
Apr 2
Last Quarter
Apr 10
New
Apr 18
First Quarter

Hourly Weather History & Observations

Time (CDT) Temp. Windchill Dew Point Humidity Pressure Visibility Wind Dir Wind Speed Gust Speed Precip Events Conditions
12:13 AM 30.0 °F 19.1 °F 19.6 °F 65% 30.00 in 10.0 mi NNE 15.0 mph 18.4 mph N/A   Overcast
12:33 AM 28.4 °F 19.1 °F 19.2 °F 69% 30.00 in 10.0 mi NNE 10.4 mph - N/A   Scattered Clouds
12:53 AM 27.9 °F 19.8 °F 19.0 °F 69% 30.00 in 10.0 mi North 8.1 mph - N/A   Scattered Clouds
1:13 AM 27.5 °F 18.0 °F 18.5 °F 69% 30.00 in 10.0 mi North 10.4 mph - N/A   Scattered Clouds
1:33 AM 27.5 °F 18.0 °F 18.3 °F 68% 30.00 in 10.0 mi North 10.4 mph - N/A   Clear
1:53 AM 26.6 °F 16.2 °F 18.1 °F 70% 30.00 in 10.0 mi North 11.5 mph - N/A   Clear
2:13 AM 27.3 °F 17.1 °F 18.5 °F 69% 30.00 in 10.0 mi North 11.5 mph - N/A   Clear
2:53 AM 26.4 °F 16.0 °F 18.5 °F 72% 30.00 in 10.0 mi North 11.5 mph - N/A   Clear
3:13 AM 26.2 °F 16.4 °F 18.3 °F 72% 30.00 in 10.0 mi North 10.4 mph - N/A   Clear
3:33 AM 25.3 °F 16.7 °F 18.0 °F 74% 30.00 in 10.0 mi North 8.1 mph - N/A   Clear
3:53 AM 25.2 °F 15.7 °F 17.8 °F 74% 30.00 in 10.0 mi North 9.2 mph - N/A   Clear
4:12 AM 24.4 °F 15.6 °F 17.4 °F 75% 30.00 in 10.0 mi North 8.1 mph - N/A   Clear
4:33 AM 24.4 °F 14.9 °F 17.4 °F 75% 30.00 in 10.0 mi North 9.2 mph - N/A   Clear
4:53 AM 23.9 °F 15.8 °F 16.7 °F 74% 30.01 in 10.0 mi North 6.9 mph - N/A   Scattered Clouds
5:12 AM 23.0 °F 15.8 °F 16.3 °F 76% 30.01 in 10.0 mi North 5.8 mph - N/A   Scattered Clouds
5:33 AM 23.7 °F 15.6 °F 16.5 °F 74% 30.02 in 10.0 mi NNW 6.9 mph - N/A   Mostly Cloudy
5:53 AM 23.0 °F 17.0 °F 16.0 °F 74% 30.02 in 10.0 mi NNW 4.6 mph - N/A   Scattered Clouds
6:12 AM 23.5 °F 17.6 °F 15.8 °F 72% 30.03 in 10.0 mi North 4.6 mph - N/A   Scattered Clouds
6:33 AM 23.5 °F 14.5 °F 15.8 °F 72% 30.03 in 10.0 mi NNW 8.1 mph - N/A   Scattered Clouds
6:53 AM 23.7 °F 14.0 °F 15.8 °F 72% 30.04 in 10.0 mi North 9.2 mph - N/A   Mostly Cloudy
7:12 AM 23.7 °F 15.6 °F 15.8 °F 72% 30.05 in 10.0 mi North 6.9 mph - N/A   Overcast
7:33 AM 23.5 °F 16.4 °F 15.4 °F 71% 30.06 in 10.0 mi North 5.8 mph - N/A   Scattered Clouds
7:53 AM 23.2 °F 13.3 °F 15.3 °F 72% 30.06 in 10.0 mi North 9.2 mph - N/A   Clear
8:12 AM 23.9 °F 15.8 °F 15.4 °F 70% 30.07 in 10.0 mi North 6.9 mph - N/A   Scattered Clouds
8:33 AM 23.9 °F 14.2 °F 15.4 °F 70% 30.08 in 10.0 mi North 9.2 mph - N/A   Scattered Clouds
8:53 AM 24.8 °F 14.6 °F 15.6 °F 68% 30.08 in 10.0 mi North 10.4 mph - N/A   Clear
9:13 AM 25.5 °F 16.9 °F 15.6 °F 66% 30.08 in 10.0 mi North 8.1 mph - N/A   Clear
9:33 AM 26.1 °F 16.8 °F 15.8 °F 65% 30.09 in 10.0 mi North 9.2 mph - N/A   Clear
9:52 AM 26.4 °F 18.0 °F 16.3 °F 66% 30.10 in 10.0 mi NNW 8.1 mph - N/A   Clear
10:13 AM 27.0 °F 16.7 °F 16.5 °F 65% 30.10 in 10.0 mi NNW 11.5 mph - N/A   Mostly Cloudy
10:33 AM 28.4 °F 19.1 °F 17.2 °F 63% 30.10 in 10.0 mi NNW 10.4 mph - N/A   Mostly Cloudy
10:52 AM 29.1 °F 20.6 °F 17.4 °F 62% 30.11 in 10.0 mi NNW 9.2 mph - N/A   Scattered Clouds
11:13 AM 30.0 °F 20.5 °F 17.4 °F 59% 30.11 in 10.0 mi NNW 11.5 mph - N/A   Clear
11:33 AM 31.1 °F 23.1 °F 17.4 °F 57% 30.11 in 10.0 mi NW 9.2 mph - N/A   Clear
11:52 AM 31.8 °F 23.9 °F 18.1 °F 57% 30.11 in 10.0 mi NNW 9.2 mph - N/A   Clear
12:13 PM 32.0 °F 24.2 °F 18.0 °F 56% 30.11 in 10.0 mi NNW 9.2 mph - N/A   Clear
12:33 PM 32.5 °F 24.8 °F 18.3 °F 56% 30.11 in 10.0 mi NNW 9.2 mph - N/A   Clear
12:52 PM 33.1 °F 25.5 °F 18.7 °F 56% 30.11 in 10.0 mi North 9.2 mph - N/A   Clear
1:13 PM 33.8 °F 25.8 °F 19.9 °F 57% 30.11 in 10.0 mi NNW 10.4 mph - N/A   Scattered Clouds
1:33 PM 34.3 °F 25.9 °F 19.9 °F 56% 30.10 in 10.0 mi NNW 11.5 mph - N/A   Scattered Clouds
1:52 PM 34.7 °F 26.4 °F 20.3 °F 56% 30.10 in 10.0 mi NNW 11.5 mph - N/A   Mostly Cloudy
2:13 PM 35.1 °F 27.4 °F 19.6 °F 53% 30.10 in 10.0 mi NNW 10.4 mph 17.3 mph N/A   Mostly Cloudy
2:33 PM 35.1 °F 27.4 °F 19.9 °F 54% 30.10 in 10.0 mi NNW 10.4 mph 18.4 mph N/A   Mostly Cloudy
2:52 PM 36.0 °F 27.5 °F 19.2 °F 51% 30.10 in 10.0 mi NNW 12.7 mph - N/A   Mostly Cloudy
3:13 PM 36.0 °F 27.5 °F 18.7 °F 50% 30.10 in 10.0 mi North 12.7 mph - N/A   Scattered Clouds
3:33 PM 36.0 °F 27.5 °F 18.9 °F 50% 30.10 in 10.0 mi NNW 12.7 mph 19.6 mph N/A   Clear
3:52 PM 36.5 °F 28.7 °F 18.7 °F 49% 30.10 in 10.0 mi North 11.5 mph 17.3 mph N/A   Clear
4:13 PM 36.0 °F 27.5 °F 17.4 °F 47% 30.10 in 10.0 mi North 12.7 mph - N/A   Clear
4:33 PM 36.7 °F 29.4 °F 18.1 °F 47% 30.10 in 10.0 mi NNW 10.4 mph - N/A   Clear
4:52 PM 36.5 °F 29.2 °F 17.8 °F 47% 30.10 in 10.0 mi North 10.4 mph 17.3 mph N/A   Clear
5:13 PM 36.5 °F 28.7 °F 18.0 °F 47% 30.11 in 10.0 mi North 11.5 mph - N/A   Clear
5:32 PM 36.0 °F 28.0 °F 20.3 °F 53% 30.12 in 10.0 mi NNW 11.5 mph - N/A   Clear
5:53 PM 36.0 °F 29.0 °F 19.8 °F 52% 30.12 in 10.0 mi NW 9.2 mph - N/A   Clear
6:13 PM 34.9 °F 27.1 °F 20.1 °F 55% 30.13 in 10.0 mi NNW 10.4 mph - N/A   Clear
6:32 PM 34.0 °F 26.6 °F 21.6 °F 60% 30.13 in 10.0 mi NW 9.2 mph - N/A   Clear
6:53 PM 34.5 °F 26.7 °F 20.3 °F 56% 30.14 in 10.0 mi NW 10.4 mph - N/A   Clear
7:12 PM 32.5 °F 24.8 °F 21.6 °F 64% 30.15 in 10.0 mi NW 9.2 mph - N/A   Scattered Clouds
7:33 PM 32.2 °F 23.8 °F 20.5 °F 62% 30.15 in 10.0 mi NW 10.4 mph - N/A   Clear
7:53 PM 31.3 °F 22.7 °F 20.3 °F 64% 30.16 in 10.0 mi NW 10.4 mph - N/A   Clear
8:12 PM 31.5 °F 23.5 °F 20.1 °F 63% 30.16 in 10.0 mi NW 9.2 mph - N/A   Scattered Clouds
8:33 PM 32.0 °F 24.2 °F 20.8 °F 63% 30.17 in 10.0 mi NW 9.2 mph - N/A   Mostly Cloudy
8:53 PM 32.0 °F 24.2 °F 21.0 °F 64% 30.17 in 10.0 mi NW 9.2 mph - N/A   Overcast
9:12 PM 31.6 °F 24.4 °F 21.2 °F 65% 30.17 in 10.0 mi WNW 8.1 mph - N/A   Overcast
9:33 PM 31.3 °F 23.9 °F 19.9 °F 63% 30.18 in 10.0 mi NW 8.1 mph - N/A   Mostly Cloudy
9:53 PM 31.5 °F 24.2 °F 19.8 °F 62% 30.18 in 10.0 mi NW 8.1 mph - N/A   Scattered Clouds
10:12 PM 28.9 °F 21.1 °F 19.8 °F 69% 30.19 in 10.0 mi NW 8.1 mph - N/A   Clear
10:33 PM 28.0 °F 21.7 °F 19.2 °F 70% 30.19 in 10.0 mi NW 5.8 mph - N/A   Clear
10:52 PM 26.6 °F 19.1 °F 18.7 °F 72% 30.19 in 10.0 mi NW 6.9 mph - N/A   Clear
11:13 PM 27.0 °F 21.6 °F 19.2 °F 73% 30.19 in 10.0 mi WNW 4.6 mph - N/A   Mostly Cloudy
11:33 PM 28.4 °F 24.6 °F 19.0 °F 68% 30.19 in 10.0 mi West 3.5 mph - N/A   Mostly Cloudy
11:52 PM 28.0 °F 22.8 °F 18.3 °F 67% 30.20 in 10.0 mi West 4.6 mph - N/A   Scattered Clouds